 day,  time,  air_temp(C),  RH(%),  ground_temp10cm(C),  ground_temp20cm(C),  ground_temp40cm(C),  precipitation(mm/h),  Solar_Radiation(MJ/m2h),  lack, 
 05/08/01, 01:00,  15.7,  99,  20.7,  21.1,  20.1,   0.0,  0.00, 
 05/08/01, 02:00,  15.3,  99,  20.5,  21.0,  20.1,   0.0,  0.00, 
 05/08/01, 03:00,  15.0,  99,  20.2,  20.9,  20.1,   0.5,  0.00, 
 05/08/01, 04:00,  15.3,  99,  20.0,  20.9,  20.0,   0.0,  0.00, 
 05/08/01, 05:00,  16.2,  99,  19.8,  20.8,  20.1,   0.0,  0.00, 
 05/08/01, 06:00,  16.3,  99,  19.7,  20.7,  20.1,   0.0,  0.01, 
 05/08/01, 07:00,  18.3,  99,  19.7,  20.6,  20.1,   0.0,  0.48, 
 05/08/01, 08:00,  19.6,  97,  19.8,  20.5,  20.1,   0.0,  1.38, 
 05/08/01, 09:00,  20.9,  91,  20.1,  20.4,  20.1,   0.0,  2.18, 
 05/08/01, 10:00,  20.9,  93,  20.6,  20.4,  20.1,   0.0,  1.92, 
 05/08/01, 11:00,  21.7,  92,  21.2,  20.4,  20.0,   0.0,  1.77, 
 05/08/01, 12:00,  23.5,  85,  21.7,  20.4,  20.0,   0.0,  2.77, 
 05/08/01, 13:00,  24.8,  81,  22.5,  20.5,  20.0,   0.0,  3.04, 
 05/08/01, 14:00,  24.1,  85,  23.0,  20.6,  20.0,   0.0,  1.98, 
 05/08/01, 15:00,  24.0,  86,  23.2,  20.8,  20.0,   0.0,  2.28, 
 05/08/01, 16:00,  23.5,  88,  23.4,  21.0,  20.0,   0.0,  1.54, 
 05/08/01, 17:00,  23.1,  89,  23.6,  21.1,  20.0,   0.0,  1.73, 
 05/08/01, 18:00,  20.7,  94,  23.7,  21.3,  20.0,   0.0,  0.40, 
 05/08/01, 19:00,  19.8,  98,  23.5,  21.4,  20.0,   0.0,  0.08, 
 05/08/01, 20:00,  18.6,  99,  23.2,  21.6,  20.0,   0.0,  0.00, 
 05/08/01, 21:00,  18.0,  99,  22.9,  21.6,  20.0,   0.0,  0.00, 
 05/08/01, 22:00,  18.2,  99,  22.6,  21.7,  20.0,   0.0,  0.00, 
 05/08/01, 23:00,  18.1,  99,  22.3,  21.7,  20.0,   0.0,  0.00, 
 05/08/02, 00:00,  18.1,  99,  22.0,  21.7,  20.0,   0.0,  0.00, 
 05/08/02, 01:00,  18.0,  99,  21.8,  21.6,  20.0,   0.0,  0.00, 
 05/08/02, 02:00,  18.0,  99,  21.7,  21.6,  20.0,   0.0,  0.00, 
 05/08/02, 03:00,  17.5,  99,  21.5,  21.5,  20.1,   0.0,  0.00, 
 05/08/02, 04:00,  16.7,  99,  21.3,  21.4,  20.1,   0.0,  0.00, 
 05/08/02, 05:00,  16.6,  99,  21.1,  21.4,  20.1,   0.0,  0.00, 
 05/08/02, 06:00,  16.7,  99,  20.9,  21.3,  20.1,   0.0,  0.11, 
 05/08/02, 07:00,  18.9,  97,  20.7,  21.2,  20.1,   0.0,  0.57, 
 05/08/02, 08:00,  19.5,  95,  20.8,  21.1,  20.1,   0.0,  1.49, 
 05/08/02, 09:00,  21.1,  91,  21.1,  21.1,  20.1,   0.0,  1.98, 
 05/08/02, 10:00,  23.8,  83,  21.6,  21.0,  20.1,   0.0,  2.81, 
 05/08/02, 11:00,  22.3,  91,  22.3,  21.0,  20.1,   0.0,  2.81, 
 05/08/02, 12:00,  25.2,  85,  23.1,  21.1,  20.1,   0.0,  3.11, 
 05/08/02, 13:00,  24.3,  86,  24.0,  21.2,  20.1,   0.0,  2.71, 
 05/08/02, 14:00,  24.1,  86,  24.5,  21.4,  20.2,   0.0,  1.82, 
 05/08/02, 15:00,  23.9,  86,  24.6,  21.6,  20.2,   0.0,  1.01, 
 05/08/02, 16:00,  23.9,  83,  24.6,  21.8,  20.1,   0.0,  1.10, 
 05/08/02, 17:00,  24.3,  85,  24.6,  22.0,  20.1,   0.0,  1.56, 
 05/08/02, 18:00,  23.6,  81,  24.6,  22.1,  20.2,   0.0,  1.12, 
 05/08/02, 19:00,  21.5,  92,  24.5,  22.2,  20.1,   0.0,  0.15, 
 05/08/02, 20:00,  20.5,  98,  24.2,  22.3,  20.1,   0.0,  0.00, 
 05/08/02, 21:00,  20.5,  96,  23.9,  22.4,  20.2,   0.0,  0.00, 
 05/08/02, 22:00,  20.6,  95,  23.6,  22.4,  20.2,   0.0,  0.00, 
 05/08/02, 23:00,  19.7,  99,  23.2,  22.4,  20.2,   8.0,  0.00, 
 05/08/03, 00:00,  19.4,  99,  23.0,  22.4,  20.2,   0.5,  0.00, 
 05/08/03, 01:00,  18.7,  99,  22.8,  22.4,  20.3,   0.0,  0.00, 
 05/08/03, 02:00,  18.2,  99,  22.6,  22.3,  20.3,   0.0,  0.00, 
 05/08/03, 03:00,  18.2,  99,  22.3,  22.3,  20.3,   0.0,  0.00, 
 05/08/03, 04:00,  18.4,  99,  22.2,  22.2,  20.2,   0.0,  0.00, 
 05/08/03, 05:00,  18.6,  99,  22.0,  22.1,  20.4,   0.0,  0.00, 
 05/08/03, 06:00,  18.6,  99,  21.9,  22.0,  20.4,   0.0,  0.03, 
 05/08/03, 07:00,  19.6,  99,  21.8,  21.9,  20.4,   0.0,  0.42, 
 05/08/03, 08:00,  21.2,  97,  21.8,  21.9,  20.4,   0.0,  1.39, 
 05/08/03, 09:00,  21.5,  96,  22.1,  21.8,  20.4,   0.0,  1.09, 
 05/08/03, 10:00,  22.7,  95,  22.4,  21.8,  20.4,   0.5,  1.60, 
 05/08/03, 11:00,  23.1,  89,  22.8,  21.7,  20.5,   0.5,  2.36, 
 05/08/03, 12:00,  22.5,  93,  23.4,  21.8,  20.5,   0.0,  0.99, 
 05/08/03, 13:00,  23.8,  86,  23.6,  21.8,  20.5,   0.0,  1.75, 
 05/08/03, 14:00,  24.5,  81,  23.9,  21.9,  20.5,   0.0,  2.24, 
 05/08/03, 15:00,  25.4,  80,  24.1,  22.0,  20.5,   0.0,  2.30, 
 05/08/03, 16:00,  25.3,  79,  24.2,  22.1,  20.6,   0.0,  1.85, 
 05/08/03, 17:00,  24.2,  87,  24.4,  22.2,  20.5,   0.0,  1.65, 
 05/08/03, 18:00,  22.6,  93,  24.5,  22.3,  20.5,   0.0,  0.63, 
 05/08/03, 19:00,  21.3,  99,  24.4,  22.4,  20.5,   0.0,  0.04, 
 05/08/03, 20:00,  20.2,  99,  24.1,  22.5,  20.5,   0.0,  0.00, 
 05/08/03, 21:00,  20.0,  99,  23.8,  22.5,  20.5,   0.0,  0.00, 
 05/08/03, 22:00,  19.1,  99,  23.6,  22.6,  20.5,   0.0,  0.00, 
 05/08/03, 23:00,  18.5,  99,  23.3,  22.6,  20.5,   0.0,  0.00, 
 05/08/04, 00:00,  18.6,  99,  23.0,  22.5,  20.5,   0.0,  0.00, 
 05/08/04, 01:00,  18.1,  99,  22.7,  22.5,  20.6,   0.0,  0.00, 
 05/08/04, 02:00,  18.0,  99,  22.5,  22.4,  20.6,   0.0,  0.00, 
 05/08/04, 03:00,  18.1,  99,  22.2,  22.3,  20.6,   0.0,  0.00, 
 05/08/04, 04:00,  17.6,  99,  22.0,  22.3,  20.6,   0.0,  0.00, 
 05/08/04, 05:00,  17.6,  99,  21.8,  22.2,  20.6,   0.0,  0.00, 
 05/08/04, 06:00,  17.7,  99,  21.6,  22.1,  20.5,   0.0,  0.05, 
 05/08/04, 07:00,  20.3,  99,  21.5,  22.0,  20.7,   0.0,  0.67, 
 05/08/04, 08:00,  21.3,  95,  21.5,  21.9,  20.7,   0.0,  1.43, 
 05/08/04, 09:00,  22.9,  92,  21.9,  21.8,  20.7,   0.0,  2.15, 
 05/08/04, 10:00,  24.2,  82,  22.4,  21.7,  20.7,   0.0,  2.70, 
 05/08/04, 11:00,  25.4,  77,  23.1,  21.7,  20.7,   0.0,  3.14, 
 05/08/04, 12:00,  26.6,  70,  24.1,  21.8,  20.7,   0.0,  3.40, 
 05/08/04, 13:00,  26.5,  65,  25.0,  21.9,  20.7,   0.0,  2.38, 
 05/08/04, 14:00,  24.7,  78,  25.3,  22.1,  20.7,   0.0,  1.47, 
 05/08/04, 15:00,  25.0,  81,  25.4,  22.3,  20.7,   0.0,  1.77, 
 05/08/04, 16:00,  24.1,  92,  25.4,  22.5,  20.6,   0.0,  0.57, 
 05/08/04, 17:00,  22.2,  99,  25.3,  22.7,  20.6,   0.0,  0.29, 
 05/08/04, 18:00,  20.8,  99,  25.1,  22.8,  20.7,   4.0,  0.00, 
 05/08/04, 19:00,  21.0,  99,  24.7,  23.0,  20.8,   2.0,  0.00, 
 05/08/04, 20:00,  20.5,  99,  24.4,  23.0,  20.7,   0.0,  0.00, 
 05/08/04, 21:00,  20.1,  99,  24.2,  23.1,  20.8,   0.0,  0.00, 
 05/08/04, 22:00,  20.1,  99,  23.9,  23.1,  20.7,   0.0,  0.00, 
 05/08/04, 23:00,  20.3,  99,  23.7,  23.0,  20.7,   0.0,  0.00, 
 05/08/05, 00:00,  19.9,  99,  23.5,  23.0,  20.8,   0.0,  0.00, 
 05/08/05, 01:00,  19.9,  99,  23.3,  22.9,  20.8,   0.0,  0.00, 
 05/08/05, 02:00,  19.5,  99,  23.1,  22.9,  20.8,   0.0,  0.00, 
 05/08/05, 03:00,  18.7,  99,  23.0,  22.8,  20.8,   0.0,  0.00, 
 05/08/05, 04:00,  18.2,  99,  22.7,  22.7,  20.9,   0.0,  0.00, 
 05/08/05, 05:00,  18.1,  99,  22.5,  22.7,  20.9,   0.0,  0.00, 
 05/08/05, 06:00,  18.7,  99,  22.3,  22.6,  20.9,   0.0,  0.05, 
 05/08/05, 07:00,  21.2,  99,  22.1,  22.5,  20.9,   0.0,  0.60, 
 05/08/05, 08:00,  22.1,  99,  22.2,  22.4,  20.9,   0.0,  1.30, 
 05/08/05, 09:00,  23.4,  99,  22.5,  22.3,  20.9,   0.0,  2.03, 
 05/08/05, 10:00,  24.0,  96,  23.0,  22.3,  20.9,   0.0,  2.46, 
 05/08/05, 11:00,  24.4,  95,  23.7,  22.2,  20.9,   0.5,  2.29, 
 05/08/05, 12:00,  25.0,  93,  24.2,  22.3,  21.0,   0.0,  1.59, 
 05/08/05, 13:00,  26.4,  85,  24.6,  22.4,  21.0,   0.0,  2.22, 
 05/08/05, 14:00,  24.7,  95,  24.9,  22.5,  21.0,   0.0,  0.70, 
 05/08/05, 15:00,  26.4,  84,  25.0,  22.7,  21.0,   0.0,  1.71, 
 05/08/05, 16:00,  25.2,  90,  25.1,  22.8,  21.0,   0.0,  1.11, 
 05/08/05, 17:00,  22.7,  99,  25.1,  22.9,  21.0,   0.0,  0.28, 
 05/08/05, 18:00,  19.7,  99,  25.0,  23.0,  20.9,   0.0,  0.01, 
 05/08/05, 19:00,  20.5,  99,  24.7,  23.1,  21.0,   0.0,  0.02, 
 05/08/05, 20:00,  19.2,  99,  24.4,  23.2,  21.0,   0.0,  0.00, 
 05/08/05, 21:00,  19.9,  99,  24.1,  23.2,  21.0,   0.0,  0.00, 
 05/08/05, 22:00,  19.8,  99,  23.8,  23.2,  21.0,   0.0,  0.00, 
 05/08/05, 23:00,  19.7,  99,  23.5,  23.1,  21.0,   0.0,  0.00, 
 05/08/06, 00:00,  18.7,  99,  23.3,  23.1,  20.9,   0.0,  0.00, 
 05/08/06, 01:00,  18.3,  99,  23.1,  23.0,  21.1,   0.0,  0.00, 
 05/08/06, 02:00,  19.4,  99,  22.9,  22.9,  21.1,   0.0,  0.00, 
 05/08/06, 03:00,  19.5,  99,  22.7,  22.8,  21.1,   0.0,  0.00, 
 05/08/06, 04:00,  19.0,  99,  22.6,  22.7,  21.1,   0.0,  0.00, 
 05/08/06, 05:00,  19.2,  99,  22.5,  22.7,  21.1,   0.0,  0.00, 
 05/08/06, 06:00,  19.4,  99,  22.4,  22.6,  21.1,   0.0,  0.02, 
 05/08/06, 07:00,  19.8,  99,  22.3,  22.5,  21.0,   0.0,  0.29, 
 05/08/06, 08:00,  21.7,  94,  22.2,  22.4,  21.0,   0.0,  1.18, 
 05/08/06, 09:00,  23.1,  91,  22.5,  22.4,  21.1,   0.0,  2.19, 
 05/08/06, 10:00,  23.1,  88,  23.0,  22.3,  21.1,   0.0,  1.88, 
 05/08/06, 11:00,  23.7,  92,  23.4,  22.3,  21.0,   0.0,  1.69, 
 05/08/06, 12:00,  23.2,  96,  23.8,  22.3,  21.1,   0.0,  1.00, 
 05/08/06, 13:00,  26.0,  75,  24.0,  22.4,  21.1,   0.0,  2.08, 
 05/08/06, 14:00,  25.5,  83,  24.2,  22.5,  21.1,   0.0,  2.10, 
 05/08/06, 15:00,  20.3,  99,  24.4,  22.6,  21.1,   2.5,  0.57, 
 05/08/06, 16:00,  19.5,  99,  24.1,  22.7,  21.1,   6.5,  0.10, 
 05/08/06, 17:00,  18.7,  99,  23.6,  23.0,  21.1,  10.0,  0.00, 
 05/08/06, 18:00,  19.1,  99,  23.2,  23.1,  21.1,   1.5,  0.03, 
 05/08/06, 19:00,  19.1,  99,  23.0,  23.0,  21.2,   0.5,  0.00, 
 05/08/06, 20:00,  19.1,  99,  22.9,  23.0,  21.2,   0.0,  0.00, 
 05/08/06, 21:00,  18.7,  99,  22.7,  22.9,  21.2,   0.5,  0.00, 
 05/08/06, 22:00,  18.5,  99,  22.6,  22.8,  21.3,   0.0,  0.00, 
 05/08/06, 23:00,  18.6,  99,  22.4,  22.7,  21.3,   6.5,  0.00, 
 05/08/07, 00:00,  18.6,  99,  22.1,  22.7,  21.3,   0.0,  0.00, 
 05/08/07, 01:00,  18.1,  99,  22.0,  22.6,  21.2,   0.5,  0.00, 
 05/08/07, 02:00,  18.2,  99,  21.9,  22.5,  21.2,   0.0,  0.00, 
 05/08/07, 03:00,  18.3,  99,  21.8,  22.4,  21.3,   0.0,  0.00, 
 05/08/07, 04:00,  18.3,  99,  21.7,  22.3,  21.3,   0.0,  0.00, 
 05/08/07, 05:00,  18.2,  99,  21.6,  22.2,  21.4,   0.0,  0.00, 
 05/08/07, 06:00,  17.3,  99,  21.5,  22.0,  21.3,   0.0,  0.00, 
 05/08/07, 07:00,  18.2,  99,  21.5,  22.1,  21.3,   0.0,  0.32, 
 05/08/07, 08:00,  18.8,  99,  21.5,  22.0,  21.4,   0.0,  0.78, 
 05/08/07, 09:00,  20.1,  99,  21.7,  21.9,  21.3,   0.5,  2.17, 
 05/08/07, 10:00,  22.8,  91,  22.2,  21.9,  21.3,   0.0,  2.74, 
 05/08/07, 11:00,  21.8,  92,  22.9,  21.9,  21.3,   0.0,  2.19, 
 05/08/07, 12:00,  23.3,  91,  23.5,  21.9,  21.3,   0.0,  2.36, 
 05/08/07, 13:00,  23.8,  88,  24.2,  22.0,  21.3,   0.5,  3.23, 
 05/08/07, 14:00,  23.6,  87,  24.7,  22.2,  21.3,   0.0,  1.31, 
 05/08/07, 15:00,  24.9,  82,  24.8,  22.3,  21.1,   0.0,  2.22, 
 05/08/07, 16:00,  24.3,  80,  25.0,  22.5,  21.2,   0.0,  2.40, 
 05/08/07, 17:00,  22.6,  90,  25.2,  22.7,  21.2,   0.5,  0.73, 
 05/08/07, 18:00,  20.8,  98,  25.1,  22.8,  21.3,   0.0,  0.39, 
 05/08/07, 19:00,  19.7,  99,  24.8,  22.9,  21.3,   0.0,  0.01, 
 05/08/07, 20:00,  19.0,  99,  24.5,  23.0,  21.2,   0.0,  0.00, 
 05/08/07, 21:00,  18.7,  99,  24.2,  23.1,  21.2,   0.0,  0.00, 
 05/08/07, 22:00,  19.0,  99,  23.9,  23.1,  21.2,   0.5,  0.00, 
 05/08/07, 23:00,  18.6,  99,  23.6,  23.1,  21.2,   0.0,  0.00, 
 05/08/08, 00:00,  18.6,  99,  23.4,  23.0,  21.2,   0.0,  0.00, 
 05/08/08, 01:00,  18.4,  99,  23.2,  23.0,  21.3,   0.0,  0.00, 
 05/08/08, 02:00,  18.1,  99,  23.0,  22.9,  21.2,   0.0,  0.00, 
 05/08/08, 03:00,  16.8,  99,  22.8,  22.8,  21.2,   0.0,  0.00, 
 05/08/08, 04:00,  16.6,  99,  22.6,  22.8,  21.3,   0.0,  0.00, 
 05/08/08, 05:00,  16.2,  99,  22.3,  22.7,  21.3,   0.0,  0.00, 
 05/08/08, 06:00,  16.3,  99,  22.1,  22.6,  21.3,   0.0,  0.04, 
 05/08/08, 07:00,  17.1,  99,  21.9,  22.5,  21.3,   0.0,  0.38, 
 05/08/08, 08:00,  18.0,  99,  21.8,  22.4,  21.3,   0.0,  1.14, 
 05/08/08, 09:00,  19.5,  99,  22.0,  22.3,  21.3,   0.5,  2.00, 
 05/08/08, 10:00,  21.3,  96,  22.3,  22.2,  21.3,   0.0,  2.06, 
 05/08/08, 11:00,  22.9,  85,  22.8,  22.2,  21.3,   0.0,  2.56, 
 05/08/08, 12:00,  23.9,  71,  23.4,  22.2,  21.3,   0.0,  2.96, 
 05/08/08, 13:00,  23.4,  78,  24.2,  22.2,  21.3,   0.5,  3.13, 
 05/08/08, 14:00,  23.2,  79,  24.5,  22.4,  21.3,   0.0,  1.91, 
 05/08/08, 15:00,  24.1,  76,  24.6,  22.5,  21.3,   0.0,  2.77, 
 05/08/08, 16:00,  20.3,  98,  24.6,  22.6,  21.3,   0.0,  0.75, 
 05/08/08, 17:00,  20.4,  99,  24.5,  22.8,  21.3,   0.0,  0.40, 
 05/08/08, 18:00,  19.9,  99,  24.4,  22.9,  21.3,   0.5,  0.26, 
 05/08/08, 19:00,  19.6,  96,  24.2,  23.0,  21.3,   0.0,  0.13, 
 05/08/08, 20:00,  18.6,  99,  23.9,  23.0,  21.3,   0.0,  0.00, 
 05/08/08, 21:00,  17.7,  99,  23.6,  23.0,  21.3,   0.0,  0.00, 
 05/08/08, 22:00,  17.1,  99,  23.3,  23.0,  21.3,   0.0,  0.00, 
 05/08/08, 23:00,  16.5,  99,  23.0,  22.9,  21.3,   0.0,  0.00, 
 05/08/09, 00:00,  15.9,  99,  22.7,  22.9,  21.3,   0.0,  0.00, 
 05/08/09, 01:00,  16.1,  99,  22.5,  22.8,  21.3,   0.0,  0.00, 
 05/08/09, 02:00,  16.0,  99,  22.2,  22.7,  21.3,   0.0,  0.00, 
 05/08/09, 03:00,  16.0,  99,  21.8,  22.6,  21.3,   0.0,  0.00, 
 05/08/09, 04:00,  16.3,  94,  21.7,  22.5,  21.3,   0.0,  0.00, 
 05/08/09, 05:00,  16.3,  96,  21.5,  22.4,  21.3,   0.0,  0.00, 
 05/08/09, 06:00,  18.1,  79,  21.3,  22.3,  21.3,   0.0,  0.09, 
 05/08/09, 07:00,  19.4,  83,  21.2,  22.2,  21.3,   0.0,  0.74, 
 05/08/09, 08:00,  19.5,  90,  21.2,  22.1,  21.3,   0.0,  1.29, 
 05/08/09, 09:00,  21.0,  80,  21.5,  22.0,  21.3,   0.0,  1.92, 
 05/08/09, 10:00,  22.3,  82,  21.9,  21.9,  21.3,   0.0,  2.59, 
 05/08/09, 11:00,  22.8,  84,  22.6,  21.9,  21.3,   0.0,  2.95, 
 05/08/09, 12:00,  23.9,  81,  23.4,  21.8,  21.3,   0.0,  2.85, 
 05/08/09, 13:00,  24.4,  77,  24.0,  22.0,  21.3,   0.0,  2.92, 
 05/08/09, 14:00,  24.0,  81,  24.4,  22.1,  21.3,   0.0,  3.12, 
 05/08/09, 15:00,  24.7,  76,  24.5,  22.3,  21.3,   0.0,  2.02, 
 05/08/09, 16:00,  23.5,  81,  24.5,  22.5,  21.2,   0.0,  1.60, 
 05/08/09, 17:00,  24.0,  80,  24.6,  22.6,  21.2,   0.0,  1.00, 
 05/08/09, 18:00,  21.8,  93,  24.5,  22.7,  21.2,   0.0,  0.75, 
 05/08/09, 19:00,  20.4,  97,  24.3,  22.8,  21.2,   0.0,  0.10, 
 05/08/09, 20:00,  19.7,  98,  24.0,  22.9,  21.2,   0.0,  0.00, 
 05/08/09, 21:00,  19.4,  99,  23.8,  22.9,  21.2,   0.0,  0.00, 
 05/08/09, 22:00,  19.8,  99,  23.5,  22.9,  21.2,   0.0,  0.00, 
 05/08/09, 23:00,  19.5,  96,  23.3,  22.9,  21.2,   0.0,  0.00, 
 05/08/10, 00:00,  19.6,  97,  23.1,  22.9,  21.3,   0.0,  0.00, 
 05/08/10, 01:00,  19.1,  99,  22.9,  22.8,  21.3,   0.0,  0.00, 
 05/08/10, 02:00,  18.8,  99,  22.8,  22.8,  21.3,   0.0,  0.00, 
 05/08/10, 03:00,  18.7,  99,  22.6,  22.7,  21.3,   0.0,  0.00, 
 05/08/10, 04:00,  18.6,  99,  22.5,  22.6,  21.3,   0.0,  0.00, 
 05/08/10, 05:00,  18.5,  99,  22.4,  22.6,  21.3,   0.0,  0.00, 
 05/08/10, 06:00,  18.5,  99,  22.2,  22.5,  21.3,   0.0,  0.00, 
 05/08/10, 07:00,  18.8,  96,  22.1,  22.4,  21.3,   0.0,  0.11, 
 05/08/10, 08:00,  18.1,  99,  22.0,  22.4,  21.3,   0.0,  0.12, 
 05/08/10, 09:00,  18.2,  99,  21.9,  22.3,  21.3,   2.0,  0.07, 
 05/08/10, 10:00,  18.7,  99,  21.7,  22.1,  21.2,   3.5,  0.47, 
 05/08/10, 11:00,  20.6,  99,  21.8,  22.2,  21.3,   0.0,  1.56, 
 05/08/10, 12:00,  21.6,  99,  22.2,  22.1,  21.3,   0.0,  2.40, 
 05/08/10, 13:00,  21.8,  89,  22.9,  22.1,  21.3,   0.5,  2.12, 
 05/08/10, 14:00,  20.8,  99,  23.3,  22.1,  21.3,   1.5,  1.06, 
 05/08/10, 15:00,  21.1,  96,  23.4,  22.2,  21.3,   0.5,  0.87, 
 05/08/10, 16:00,  21.5,  98,  23.4,  22.2,  21.3,   0.0,  1.27, 
 05/08/10, 17:00,  21.4,  83,  23.5,  22.3,  21.3,   0.0,  1.16, 
 05/08/10, 18:00,  20.9,  85,  23.4,  22.4,  21.3,   0.5,  0.74, 
 05/08/10, 19:00,  19.3,  90,  23.2,  22.4,  21.3,   0.0,  0.12, 
 05/08/10, 20:00,  18.7,  91,  23.0,  22.4,  21.3,   0.0,  0.00, 
 05/08/10, 21:00,  18.7,  92,  22.7,  22.4,  21.3,   0.0,  0.00, 
 05/08/10, 22:00,  18.4,  90,  22.4,  22.4,  21.3,   0.0,  0.00, 
 05/08/10, 23:00,  18.5,  84,  22.1,  22.4,  21.3,   0.0,  0.00, 
 05/08/11, 00:00,  16.2,  99,  21.8,  22.3,  21.3,   0.0,  0.00, 
 05/08/11, 01:00,  15.5,  99,  21.6,  22.2,  21.3,   0.0,  0.00, 
 05/08/11, 02:00,  17.0,  94,  21.3,  22.0,  21.3,   0.0,  0.00, 
 05/08/11, 03:00,  17.1,  92,  21.1,  22.0,  21.3,   0.0,  0.00, 
 05/08/11, 04:00,  17.7,  83,  20.9,  21.8,  21.2,   0.0,  0.00, 
 05/08/11, 05:00,  17.8,  86,  20.7,  21.8,  21.3,   0.0,  0.00, 
 05/08/11, 06:00,  16.6,  98,  20.5,  21.7,  21.3,   0.5,  0.07, 
 05/08/11, 07:00,  19.0,  87,  20.4,  21.6,  21.2,   0.0,  0.49, 
 05/08/11, 08:00,  20.5,  80,  20.5,  21.5,  21.3,   0.0,  1.42, 
 05/08/11, 09:00,  21.0,  89,  20.8,  21.4,  21.2,   0.0,  2.35, 
 05/08/11, 10:00,  20.6,  94,  21.4,  21.3,  21.2,   0.0,  2.29, 
 05/08/11, 11:00,  20.9,  92,  21.9,  21.3,  21.2,   0.0,  1.48, 
 05/08/11, 12:00,  21.5,  91,  22.2,  21.4,  21.2,   0.0,  1.53, 
 05/08/11, 13:00,  22.2,  83,  22.5,  21.4,  21.1,   0.0,  1.99, 
 05/08/11, 14:00,  22.9,  84,  22.8,  21.5,  21.2,   0.5,  2.16, 
 05/08/11, 15:00,  23.0,  78,  23.1,  21.6,  21.0,   0.5,  1.45, 
 05/08/11, 16:00,  22.6,  84,  23.3,  21.7,  21.1,   0.5,  1.22, 
 05/08/11, 17:00,  21.5,  89,  23.4,  21.8,  21.1,   0.0,  0.36, 
 05/08/11, 18:00,  19.2,  99,  23.3,  21.9,  21.1,   0.5,  0.05, 
 05/08/11, 19:00,  18.7,  99,  23.1,  22.0,  21.1,   1.5,  0.00, 
 05/08/11, 20:00,  18.1,  99,  22.9,  22.1,  21.1,   0.0,  0.00, 
 05/08/11, 21:00,  17.9,  99,  22.6,  22.1,  21.1,   0.5,  0.00, 
 05/08/11, 22:00,  17.7,  99,  22.4,  22.1,  21.1,   1.0,  0.00, 
 05/08/11, 23:00,  17.9,  99,  22.2,  22.0,  21.0,   0.5,  0.00, 
 05/08/12, 00:00,  18.1,  99,  22.0,  22.1,  21.1,   0.0,  0.00, 
 05/08/12, 01:00,  17.8,  98,  21.8,  21.9,  21.0,   1.0,  0.00, 
 05/08/12, 02:00,  17.9,  99,  21.7,  21.9,  21.0,   0.0,  0.00, 
 05/08/12, 03:00,  18.3,  99,  21.6,  21.8,  21.0,   0.5,  0.00, 
 05/08/12, 04:00,  18.5,  99,  21.4,  21.9,  21.1,   2.0,  0.00, 
 05/08/12, 05:00,  18.6,  99,  21.3,  21.8,  21.0,   1.5,  0.00, 
 05/08/12, 06:00,  18.7,  99,  21.2,  21.7,  21.0,   1.0,  0.00, 
 05/08/12, 07:00,  18.9,  99,  21.1,  21.7,  21.1,   1.0,  0.07, 
 05/08/12, 08:00,  19.0,  99,  21.1,  21.6,  21.1,   0.5,  0.36, 
 05/08/12, 09:00,  19.1,  99,  21.2,  21.5,  21.1,   0.0,  0.44, 
 05/08/12, 10:00,  18.9,  99,  21.3,  21.5,  21.0,   0.0,  0.24, 
 05/08/12, 11:00,  18.6,  99,  21.3,  21.4,  21.0,   0.0,  0.33, 
 05/08/12, 12:00,  18.5,  99,  21.3,  21.4,  21.1,   0.5,  0.59, 
 05/08/12, 13:00,  17.1,  99,  21.4,  21.4,  21.0,   2.5,  0.25, 
 05/08/12, 14:00,  17.5,  99,  21.3,  21.4,  21.1,   1.5,  0.41, 
 05/08/12, 15:00,  17.7,  99,  21.3,  21.4,  21.0,   5.0,  0.26, 
 05/08/12, 16:00,  17.9,  99,  21.2,  21.4,  20.9,   2.0,  0.22, 
 05/08/12, 17:00,  17.9,  99,  21.1,  21.3,  20.9,   1.0,  0.25, 
 05/08/12, 18:00,  17.7,  99,  21.1,  21.3,  20.9,   0.0,  0.27, 
 05/08/12, 19:00,  17.9,  99,  21.0,  21.3,  21.0,   0.0,  0.01, 
 05/08/12, 20:00,  18.1,  99,  20.9,  21.2,  21.0,   0.0,  0.00, 
 05/08/12, 21:00,  18.1,  99,  20.8,  21.2,  20.9,   0.0,  0.00, 
 05/08/12, 22:00,  17.7,  99,  20.8,  21.2,  20.9,   0.5,  0.00, 
 05/08/12, 23:00,  18.0,  99,  20.7,  21.2,  20.9,   1.0,  0.00, 
 05/08/13, 00:00,  17.8,  99,  20.6,  21.1,  21.0,   0.5,  0.00, 
 05/08/13, 01:00,  17.7,  99,  20.5,  21.1,  21.0,   0.5,  0.00, 
 05/08/13, 02:00,  17.9,  99,  20.4,  21.0,  20.9,   0.0,  0.00, 
 05/08/13, 03:00,  17.9,  99,  20.4,  21.0,  20.9,   0.0,  0.00, 
 05/08/13, 04:00,  17.9,  99,  20.3,  20.9,  20.9,   0.0,  0.00, 
 05/08/13, 05:00,  17.8,  99,  20.2,  20.9,  20.9,   0.5,  0.00, 
 05/08/13, 06:00,  17.9,  99,  20.2,  20.8,  20.8,   0.0,  0.00, 
 05/08/13, 07:00,  17.7,  99,  20.1,  20.8,  20.9,   0.0,  0.00, 
 05/08/13, 08:00,  17.8,  99,  20.1,  20.7,  20.8,   0.0,  0.20, 
 05/08/13, 09:00,  17.9,  99,  20.1,  20.7,  20.8,   0.0,  0.29, 
 05/08/13, 10:00,  18.6,  99,  20.2,  20.6,  20.8,   0.0,  0.70, 
 05/08/13, 11:00,  20.9,  99,  20.3,  20.6,  20.8,   0.5,  1.33, 
 05/08/13, 12:00,  21.4,  97,  20.8,  20.6,  20.8,   0.0,  2.25, 
 05/08/13, 13:00,  22.4,  95,  21.4,  20.6,  20.8,   0.0,  1.65, 
 05/08/13, 14:00,  23.6,  89,  21.8,  20.7,  20.7,   0.0,  1.85, 
 05/08/13, 15:00,  24.1,  83,  22.0,  20.7,  20.7,   0.0,  2.62, 
 05/08/13, 16:00,  23.1,  86,  22.4,  20.8,  20.7,   0.5,  2.06, 
 05/08/13, 17:00,  22.7,  89,  22.7,  21.0,  20.7,   0.0,  1.72, 
 05/08/13, 18:00,  21.2,  91,  22.8,  21.1,  20.7,   0.0,  0.66, 
 05/08/13, 19:00,  20.0,  93,  22.7,  21.2,  20.7,   0.0,  0.12, 
 05/08/13, 20:00,  19.3,  94,  22.5,  21.3,  20.7,   0.0,  0.00, 
 05/08/13, 21:00,  18.3,  99,  22.3,  21.4,  20.7,   0.5,  0.00, 
 05/08/13, 22:00,  18.1,  99,  22.0,  21.4,  20.6,   0.0,  0.00, 
 05/08/13, 23:00,  17.7,  99,  21.7,  21.4,  20.7,   0.5,  0.00, 
 05/08/14, 00:00,  16.6,  99,  21.5,  21.4,  20.6,   0.0,  0.00, 
 05/08/14, 01:00,  16.6,  99,  21.2,  21.4,  20.7,   0.0,  0.00, 
 05/08/14, 02:00,  16.5,  99,  21.0,  21.3,  20.7,   0.0,  0.00, 
 05/08/14, 03:00,  18.0,  98,  20.8,  21.3,  20.7,   0.5,  0.00, 
 05/08/14, 04:00,  18.0,  99,  20.7,  21.2,  20.7,   0.0,  0.00, 
 05/08/14, 05:00,  18.5,  96,  20.6,  21.1,  20.7,   0.0,  0.00, 
 05/08/14, 06:00,  17.9,  99,  20.5,  21.1,  20.7,   0.0,  0.00, 
 05/08/14, 07:00,  18.6,  99,  20.4,  21.0,  20.7,   0.5,  0.24, 
 05/08/14, 08:00,  19.9,  99,  20.4,  20.9,  20.7,   0.0,  0.59, 
 05/08/14, 09:00,  21.6,  90,  20.6,  20.9,  20.7,   0.0,  2.10, 
 05/08/14, 10:00,  22.8,  91,  21.1,  20.8,  20.7,   0.0,  2.68, 
 05/08/14, 11:00,  23.2,  88,  21.8,  20.8,  20.7,   0.0,  2.04, 
 05/08/14, 12:00,  24.1,  83,  22.4,  20.9,  20.7,   0.0,  2.37, 
 05/08/14, 13:00,  22.1,  93,  23.0,  21.0,  20.6,   0.5,  1.01, 
 05/08/14, 14:00,  21.9,  98,  23.2,  21.1,  20.6,   0.0,  0.68, 
 05/08/14, 15:00,  20.8,  99,  23.3,  21.3,  20.6,   0.0,  0.52, 
 05/08/14, 16:00,  21.2,  96,  23.3,  21.5,  20.6,   0.0,  0.84, 
 05/08/14, 17:00,  20.1,  97,  23.3,  21.6,  20.6,   0.0,  0.30, 
 05/08/14, 18:00,  18.5,  99,  22.8,  21.9,  20.6,  21.0,  0.00, 
 05/08/14, 19:00,  18.2,  99,  22.2,  22.0,  20.6,   3.0,  0.00, 
 05/08/14, 20:00,  18.5,  99,  22.0,  22.1,  20.7,   0.0,  0.00, 
 05/08/14, 21:00,  18.3,  99,  21.8,  22.1,  20.7,   0.0,  0.00, 
 05/08/14, 22:00,  18.4,  99,  21.7,  22.0,  20.7,   0.0,  0.00, 
 05/08/14, 23:00,  18.4,  99,  21.6,  21.8,  20.8,   0.0,  0.00, 
 05/08/15, 00:00,  18.8,  97,  21.5,  21.8,  20.8,   0.5,  0.00, 
 05/08/15, 01:00,  17.9,  99,  21.3,  21.7,  20.8,   0.0,  0.00, 
 05/08/15, 02:00,  17.8,  99,  21.2,  21.6,  20.8,   0.0,  0.00, 
 05/08/15, 03:00,  17.8,  99,  21.1,  21.6,  20.9,   3.0,  0.00, 
 05/08/15, 04:00,  17.7,  99,  20.9,  21.5,  20.9,   1.0,  0.00, 
 05/08/15, 05:00,  18.0,  99,  20.8,  21.4,  20.9,   0.0,  0.00, 
 05/08/15, 06:00,  17.8,  99,  20.7,  21.3,  20.9,   0.5,  0.00, 
 05/08/15, 07:00,  18.3,  96,  20.6,  21.2,  20.8,   0.0,  0.11, 
 05/08/15, 08:00,  18.8,  98,  20.6,  21.2,  20.9,   0.0,  0.83, 
 05/08/15, 09:00,  19.6,  96,  20.7,  21.1,  20.9,   0.0,  0.86, 
 05/08/15, 10:00,  19.5,  99,  20.9,  21.1,  20.8,   0.0,  0.77, 
 05/08/15, 11:00,  18.2,  99,  21.1,  21.0,  20.8,   0.5,  0.53, 
 05/08/15, 12:00,  19.0,  99,  21.2,  21.0,  20.8,   1.5,  0.98, 
 05/08/15, 13:00,  19.5,  99,  21.3,  21.0,  20.8,   0.0,  1.43, 
 05/08/15, 14:00,  19.0,  99,  21.6,  21.0,  20.8,   0.5,  1.46, 
 05/08/15, 15:00,  18.6,  99,  21.8,  21.1,  20.8,   0.0,  0.58, 
 05/08/15, 16:00,  18.0,  99,  21.8,  21.1,  20.8,   0.0,  0.42, 
 05/08/15, 17:00,  18.1,  99,  21.8,  21.2,  20.8,   0.0,  0.13, 
 05/08/15, 18:00,  18.1,  99,  21.8,  21.2,  20.8,   2.0,  0.02, 
 05/08/15, 19:00,  18.0,  99,  21.6,  21.2,  20.7,   0.0,  0.00, 
 05/08/15, 20:00,  18.0,  99,  21.5,  21.3,  20.7,   0.0,  0.00, 
 05/08/15, 21:00,  18.0,  99,  21.3,  21.2,  20.7,   0.5,  0.00, 
 05/08/15, 22:00,  17.9,  99,  21.2,  21.2,  20.7,   0.0,  0.00, 
 05/08/15, 23:00,  17.8,  99,  21.1,  21.2,  20.7,   0.0,  0.00, 
 05/08/16, 00:00,  17.8,  99,  21.0,  21.2,  20.7,   0.0,  0.00, 
 05/08/16, 01:00,  17.8,  99,  20.8,  21.1,  20.7,   0.5,  0.00, 